| time (UTC) | temp F | wind direction | speed MPH | gust MPH | rain 1hr in | rain 24hr in | rain mn in | humidity % | barometer mb |
| 20260508213207 | 62 | 184 | 2.0 | 10.0 | 0.00 | 0.00 | 0.00 | 64 | 1021.6 |
| 20260508212307 | 62 | 360 | 4.0 | 10.0 | 0.00 | 0.00 | 0.00 | 71 | 1021.5 |
| 20260508211807 | 62 | 205 | 6.0 | 10.0 | 0.00 | 0.00 | 0.00 | 70 | 1021.5 |
| 20260508211307 | 62 | 202 | 9.0 | 10.0 | 0.00 | 0.00 | 0.00 | 71 | 1021.4 |
| 20260508210807 | 61 | 360 | 10.0 | 10.0 | 0.00 | 0.00 | 0.00 | 72 | 1021.5 |
| 20260508210307 | 62 | 192 | 7.0 | 7.0 | 0.00 | 0.00 | 0.00 | 68 | 1021.4 |
| 20260508205807 | 62 | 144 | 5.0 | 7.0 | 0.00 | 0.00 | 0.00 | 70 | 1021.4 |
| 20260508205307 | 62 | 212 | 5.0 | 8.0 | 0.00 | 0.00 | 0.00 | 71 | 1021.3 |
| 20260508204807 | 61 | 165 | 4.0 | 10.0 | 0.00 | 0.00 | 0.00 | 75 | 1021.4 |
| 20260508204306 | 60 | 200 | 3.0 | 10.0 | 0.00 | 0.00 | 0.00 | 71 | 1021.2 |
| 20260508203607 | 61 | 221 | 1.0 | 7.0 | 0.00 | 0.00 | 0.00 | 71 | 1021.3 |
| 20260508203107 | 61 | 202 | 5.0 | 8.0 | 0.00 | 0.00 | 0.00 | 72 | 1021.2 |
| 20260508202607 | 60 | 237 | 6.0 | 11.0 | 0.00 | 0.00 | 0.00 | 70 | 1021.2 |
| 20260508202107 | 60 | 223 | 4.0 | 11.0 | 0.00 | 0.00 | 0.00 | 73 | 1021.2 |
| 20260508201607 | 60 | 213 | 11.0 | 11.0 | 0.00 | 0.00 | 0.00 | 73 | 1021.1 |
| 20260508201107 | 60 | 191 | 5.0 | 10.0 | 0.00 | 0.00 | 0.00 | 70 | 1021.1 |
| 20260508200607 | 60 | 215 | 8.0 | 10.0 | 0.00 | 0.00 | 0.00 | 70 | 1021.1 |
| 20260508200107 | 61 | 143 | 6.0 | 8.0 | 0.00 | 0.00 | 0.00 | 75 | 1021.1 |
| 20260508195607 | 61 | 194 | 8.0 | 8.0 | 0.00 | 0.00 | 0.00 | 71 | 1021.1 |
| 20260508195106 | 61 | 170 | 5.0 | 11.0 | 0.00 | 0.00 | 0.00 | 74 | 1021.1 |
| 20260508194607 | 60 | 225 | 6.0 | 11.0 | 0.00 | 0.00 | 0.00 | 74 | 1021.1 |
| 20260508194107 | 59 | 216 | 6.0 | 7.0 | 0.00 | 0.00 | 0.00 | 71 | 1021.1 |
| 20260508193607 | 59 | 194 | 3.0 | 8.0 | 0.00 | 0.00 | 0.00 | 71 | 1021.1 |
| 20260508193107 | 59 | 246 | 5.0 | 8.0 | 0.00 | 0.00 | 0.00 | 69 | 1021.0 |
| 20260508192607 | 59 | 267 | 4.0 | 10.0 | 0.00 | 0.00 | 0.00 | 70 | 1021.0 |
| 20260508191907 | 59 | 214 | 5.0 | 10.0 | 0.00 | 0.00 | 0.00 | 72 | 1021.1 |
| 20260508191407 | 59 | 193 | 3.0 | 9.0 | 0.00 | 0.00 | 0.00 | 71 | 1021.3 |
| 20260508190907 | 59 | 360 | 5.0 | 7.0 | 0.00 | 0.00 | 0.00 | 75 | 1021.3 |
| 20260508190407 | 58 | 200 | 4.0 | 9.0 | 0.00 | 0.00 | 0.00 | 74 | 1021.3 |
| 20260508185907 | 58 | 360 | 4.0 | 9.0 | 0.00 | 0.00 | 0.00 | 73 | 1021.3 |
| 20260508185406 | 57 | 360 | 9.0 | 9.0 | 0.00 | 0.00 | 0.00 | 72 | 1021.2 |
| 20260508184907 | 58 | 360 | 4.0 | 11.0 | 0.00 | 0.00 | 0.00 | 69 | 1021.3 |
| 20260508184207 | 58 | 360 | 10.0 | 11.0 | 0.00 | 0.00 | 0.00 | 72 | 1021.4 |
| 20260508183707 | 58 | 360 | 6.0 | 6.0 | 0.00 | 0.00 | 0.00 | 70 | 1021.5 |
| 20260508183207 | 58 | 360 | 3.0 | 10.0 | 0.00 | 0.00 | 0.00 | 73 | 1021.4 |
| 20260508182707 | 57 | 360 | 5.0 | 10.0 | 0.00 | 0.00 | 0.00 | 74 | 1021.4 |
| 20260508182206 | 57 | 360 | 5.0 | 9.0 | 0.00 | 0.00 | 0.00 | 72 | 1021.5 |
| 20260508181706 | 57 | 360 | 6.0 | 10.0 | 0.00 | 0.00 | 0.00 | 72 | 1021.5 |
| 20260508181007 | 56 | 360 | 8.0 | 13.0 | 0.00 | 0.00 | 0.00 | 75 | 1021.4 |
| 20260508180506 | 56 | 360 | 8.0 | 13.0 | 0.00 | 0.00 | 0.00 | 72 | 1021.3 |
| 20260508175607 | 56 | 360 | 4.0 | 10.0 | 0.00 | 0.00 | 0.00 | 77 | 1021.5 |
| 20260508174907 | 56 | 360 | 5.0 | 13.0 | 0.00 | 0.00 | 0.00 | 76 | 1021.4 |
| 20260508174407 | 56 | 360 | 8.0 | 13.0 | 0.00 | 0.00 | 0.00 | 78 | 1021.3 |
| 20260508173907 | 56 | 360 | 5.0 | 13.0 | 0.00 | 0.00 | 0.00 | 75 | 1021.2 |
| 20260508173407 | 56 | 360 | 5.0 | 8.0 | 0.00 | 0.00 | 0.00 | 74 | 1021.2 |
| 20260508172907 | 56 | 360 | 5.0 | 8.0 | 0.00 | 0.00 | 0.00 | 76 | 1021.0 |
| 20260508172407 | 56 | 360 | 3.0 | 8.0 | 0.00 | 0.00 | 0.00 | 74 | 1021.0 |
| 20260508171907 | 56 | 360 | 2.0 | 8.0 | 0.00 | 0.00 | 0.00 | 74 | 1021.0 |
| 20260508171407 | 56 | 134 | 1.0 | 7.0 | 0.00 | 0.00 | 0.00 | 75 | 1020.9 |
| 20260508170907 | 56 | 179 | 7.0 | 7.0 | 0.00 | 0.00 | 0.00 | 78 | 1020.8 |
| 20260508170406 | 55 | 360 | 4.0 | 6.0 | 0.00 | 0.00 | 0.00 | 79 | 1020.7 |
| 20260508165707 | 55 | 192 | 3.0 | 5.0 | 0.00 | 0.00 | 0.00 | 80 | 1020.6 |
| 20260508165207 | 55 | 203 | 3.0 | 4.0 | 0.00 | 0.00 | 0.00 | 82 | 1020.6 |
| 20260508164707 | 54 | 207 | 1.0 | 5.0 | 0.00 | 0.00 | 0.00 | 80 | 1020.6 |
| 20260508164206 | 55 | 215 | 4.0 | 5.0 | 0.00 | 0.00 | 0.00 | 79 | 1020.6 |
| 20260508163507 | 54 | 136 | 3.0 | 3.0 | 0.00 | 0.00 | 0.00 | 85 | 1020.6 |
| 20260508162807 | 52 | 360 | 0.0 | 3.0 | 0.00 | 0.00 | 0.00 | 89 | 1020.7 |
| 20260508161907 | 51 | 228 | 3.0 | 3.0 | 0.00 | 0.00 | 0.00 | 88 | 1020.8 |
| 20260508161406 | 51 | 229 | 1.0 | 2.0 | 0.00 | 0.00 | 0.00 | 89 | 1020.6 |
| 20260508160907 | 50 | 218 | 1.0 | 3.0 | 0.00 | 0.00 | 0.00 | 89 | 1020.6 |
| 20260508160407 | 50 | 219 | 2.0 | 3.0 | 0.00 | 0.00 | 0.00 | 89 | 1020.7 |
| 20260508155707 | 51 | 188 | 1.0 | 3.0 | 0.00 | 0.00 | 0.00 | 88 | 1020.6 |
| 20260508155206 | 51 | 360 | 1.0 | 2.0 | 0.00 | 0.00 | 0.00 | 88 | 1020.5 |
| 20260508154706 | 50 | 86 | 1.0 | 2.0 | 0.00 | 0.00 | 0.00 | 89 | 1020.5 |
| 20260508154207 | 50 | 360 | 0.0 | 2.0 | 0.00 | 0.00 | 0.00 | 89 | 1020.2 |
| 20260508153707 | 50 | 360 | 1.0 | 2.0 | 0.00 | 0.00 | 0.00 | 90 | 1020.4 |
| 20260508153207 | 50 | 360 | 0.0 | 2.0 | 0.00 | 0.00 | 0.00 | 90 | 1020.2 |
| 20260508152707 | 49 | 360 | 1.0 | 1.0 | 0.00 | 0.00 | 0.00 | 91 | 1019.9 |
| 20260508152207 | 49 | 360 | 0.0 | 2.0 | 0.00 | 0.00 | 0.00 | 92 | 1020.0 |
| 20260508151507 | 49 | 360 | 0.0 | 2.0 | 0.00 | 0.00 | 0.00 | 94 | 1020.0 |
| 20260508150807 | 48 | 360 | 0.0 | 2.0 | 0.00 | 0.00 | 0.00 | 94 | 1019.9 |
| 20260508150307 | 48 | 9 | 0.0 | 2.0 | 0.00 | 0.00 | 0.00 | 94 | 1019.7 |
| 20260508145807 | 48 | 10 | 1.0 | 1.0 | 0.00 | 0.00 | 0.00 | 95 | 1019.6 |
| 20260508145307 | 48 | 86 | 1.0 | 1.0 | 0.00 | 0.00 | 0.00 | 95 | 1019.7 |
| 20260508144607 | 47 | 85 | 0.0 | 2.0 | 0.00 | 0.00 | 0.00 | 96 | 1019.7 |
| 20260508144107 | 47 | 61 | 1.0 | 3.0 | 0.00 | 0.00 | 0.00 | 96 | 1019.7 |
| 20260508143407 | 47 | 56 | 2.0 | 3.0 | 0.00 | 0.00 | 0.00 | 97 | 1019.7 |
| 20260508142707 | 47 | 57 | 1.0 | 3.0 | 0.00 | 0.00 | 0.00 | 97 | 1019.7 |
| 20260508142207 | 46 | 90 | 2.0 | 2.0 | 0.00 | 0.00 | 0.00 | 97 | 1019.8 |
| 20260508141707 | 46 | 360 | 1.0 | 3.0 | 0.00 | 0.00 | 0.00 | 98 | 1019.7 |
| 20260508141206 | 46 | 360 | 2.0 | 3.0 | 0.00 | 0.00 | 0.00 | 98 | 1019.8 |
| 20260508140507 | 46 | 360 | 2.0 | 2.0 | 0.00 | 0.00 | 0.00 | 98 | 1019.8 |
| 20260508140006 | 46 | 360 | 1.0 | 2.0 | 0.00 | 0.00 | 0.00 | 98 | 1019.9 |
| 20260508135507 | 45 | 360 | 0.0 | 2.0 | 0.00 | 0.00 | 0.00 | 98 | 1019.9 |
| 20260508135007 | 45 | 360 | 0.0 | 2.0 | 0.00 | 0.00 | 0.00 | 98 | 1019.8 |
| 20260508134507 | 45 | 360 | 2.0 | 2.0 | 0.00 | 0.00 | 0.00 | 98 | 1019.8 |
| 20260508134007 | 45 | 360 | 0.0 | 1.0 | 0.00 | 0.00 | 0.00 | 98 | 1019.8 |
| 20260508133507 | 44 | 360 | 0.0 | 1.0 | 0.00 | 0.00 | 0.00 | 98 | 1019.8 |
| 20260508133007 | 44 | 360 | 0.0 | 1.0 | 0.00 | 0.00 | 0.00 | 98 | 1019.6 |
| 20260508132507 | 44 | 360 | 1.0 | 1.0 | 0.00 | 0.00 | 0.00 | 98 | 1019.7 |
| 20260508132007 | 44 | 360 | 0.0 | 1.0 | 0.00 | 0.00 | 0.00 | 98 | 1019.6 |
| 20260508131307 | 44 | 360 | 0.0 | 0.0 | 0.00 | 0.00 | 0.00 | 98 | 1019.4 |
| 20260508101204 | 43 | 360 | 0.0 | 2.0 | 0.00 | 0.00 | 0.00 | 97 | 1017.9 |
| 20260508100705 | 43 | 360 | 0.0 | 2.0 | 0.00 | 0.00 | 0.00 | 97 | 1017.8 |
| 20260508100204 | 43 | 360 | 0.0 | 2.0 | 0.00 | 0.00 | 0.00 | 97 | 1017.7 |
| 20260508095504 | 43 | 184 | 2.0 | 2.0 | 0.00 | 0.00 | 0.00 | 97 | 1017.6 |
| 20260508095004 | 43 | 184 | 0.0 | 1.0 | 0.00 | 0.00 | 0.00 | 97 | 1017.6 |
| 20260508094504 | 43 | 184 | 0.0 | 1.0 | 0.00 | 0.00 | 0.00 | 97 | 1017.6 |
| 20260508094004 | 43 | 184 | 0.0 | 1.0 | 0.00 | 0.00 | 0.00 | 97 | 1017.6 |
| 20260508093304 | 43 | 184 | 1.0 | 1.0 | 0.00 | 0.00 | 0.00 | 96 | 1017.5 |
| 20260508092604 | 43 | 360 | 1.0 | 1.0 | 0.00 | 0.00 | 0.00 | 96 | 1017.5 |
| 20260508092104 | 43 | 360 | 1.0 | 1.0 | 0.00 | 0.00 | 0.00 | 96 | 1017.4 |
| 20260508091404 | 43 | 360 | 0.0 | 0.0 | 0.00 | 0.00 | 0.00 | 96 | 1017.5 |
| 20260508090704 | 43 | 360 | 0.0 | 0.0 | 0.00 | 0.00 | 0.00 | 96 | 1017.4 |
| 20260508085804 | 43 | 360 | 0.0 | 0.0 | 0.00 | 0.00 | 0.00 | 96 | 1017.2 |
| 20260508085307 | 43 | 360 | 0.0 | 0.0 | 0.00 | 0.00 | 0.00 | 96 | 1017.2 |
| 20260508084804 | 44 | 360 | 0.0 | 0.0 | 0.00 | 0.00 | 0.00 | 96 | 1017.2 |
| 20260508084304 | 44 | 360 | 0.0 | 0.0 | 0.00 | 0.00 | 0.00 | 96 | 1017.2 |
| 20260508083804 | 44 | 360 | 0.0 | 0.0 | 0.00 | 0.00 | 0.00 | 96 | 1017.2 |
| 20260508083104 | 44 | 360 | 0.0 | 0.0 | 0.00 | 0.00 | 0.00 | 96 | 1017.2 |
| 20260508082604 | 44 | 360 | 0.0 | 0.0 | 0.00 | 0.00 | 0.00 | 95 | 1017.2 |
| 20260508081904 | 44 | 360 | 0.0 | 0.0 | 0.00 | 0.00 | 0.00 | 95 | 1017.3 |
| 20260508081404 | 44 | 360 | 0.0 | 0.0 | 0.00 | 0.00 | 0.00 | 95 | 1017.3 |
| 20260508080804 | 44 | 360 | 0.0 | 0.0 | 0.00 | 0.00 | 0.00 | 95 | 1017.2 |
| 20260508080204 | 44 | 360 | 0.0 | 0.0 | 0.00 | 0.00 | 0.00 | 95 | 1017.2 |
| 20260508075308 | 45 | 360 | 0.0 | 0.0 | 0.00 | 0.00 | 0.00 | 95 | 1017.0 |
| 20260508074705 | 45 | 360 | 0.0 | 0.0 | 0.00 | 0.00 | 0.00 | 95 | 1017.0 |
| 20260508074204 | 45 | 360 | 0.0 | 0.0 | 0.00 | 0.00 | 0.00 | 95 | 1017.0 |
| 20260508073605 | 45 | 360 | 0.0 | 0.0 | 0.00 | 0.00 | 0.00 | 95 | 1017.0 |
| 20260508073104 | 45 | 360 | 0.0 | 0.0 | 0.00 | 0.00 | 0.00 | 95 | 1016.9 |
| 20260508072604 | 45 | 360 | 0.0 | 0.0 | 0.00 | 0.00 | 0.00 | 94 | 1016.9 |
| 20260508072104 | 45 | 360 | 0.0 | 0.0 | 0.00 | 0.00 | 0.00 | 94 | 1017.0 |
| 20260508071604 | 45 | 360 | 0.0 | 0.0 | 0.00 | 0.00 | 0.00 | 94 | 1017.0 |
| 20260508070904 | 45 | 360 | 0.0 | 0.0 | 0.00 | 0.00 | 0.00 | 94 | 1016.9 |
| 20260508070404 | 46 | 360 | 0.0 | 0.0 | 0.00 | 0.00 | 0.00 | 93 | 1016.9 |
| 20260508065904 | 46 | 360 | 0.0 | 0.0 | 0.00 | 0.00 | 0.00 | 93 | 1016.9 |
| 20260508065404 | 46 | 360 | 0.0 | 1.0 | 0.00 | 0.00 | 0.00 | 93 | 1016.9 |
| 20260508064904 | 46 | 360 | 0.0 | 1.0 | 0.00 | 0.00 | 0.00 | 93 | 1016.9 |
| 20260508064404 | 46 | 360 | 0.0 | 1.0 | 0.00 | 0.00 | 0.00 | 93 | 1016.9 |
| 20260508063904 | 46 | 360 | 0.0 | 0.0 | 0.00 | 0.00 | 0.00 | 93 | 1017.0 |
| 20260508063404 | 46 | 360 | 0.0 | 0.0 | 0.00 | 0.00 | 0.00 | 93 | 1017.0 |
| 20260508062904 | 47 | 360 | 0.0 | 0.0 | 0.00 | 0.00 | 0.00 | 93 | 1017.0 |
| 20260508062404 | 47 | 360 | 0.0 | 0.0 | 0.00 | 0.00 | 0.00 | 93 | 1017.0 |
| 20260508061904 | 47 | 360 | 0.0 | 0.0 | 0.00 | 0.00 | 0.00 | 93 | 1017.0 |
| 20260508061204 | 47 | 360 | 0.0 | 0.0 | 0.00 | 0.00 | 0.00 | 92 | 1016.9 |
| 20260508060704 | 47 | 360 | 0.0 | 0.0 | 0.00 | 0.00 | 0.00 | 92 | 1017.0 |
| 20260508060204 | 47 | 360 | 0.0 | 0.0 | 0.00 | 0.00 | 0.00 | 91 | 1017.0 |
| 20260508055704 | 47 | 360 | 0.0 | 0.0 | 0.00 | 0.00 | 0.00 | 92 | 1017.0 |
| 20260508055204 | 47 | 360 | 0.0 | 0.0 | 0.00 | 0.00 | 0.00 | 91 | 1017.0 |
| 20260508054504 | 48 | 360 | 0.0 | 0.0 | 0.00 | 0.00 | 0.00 | 91 | 1017.1 |
| 20260508054004 | 48 | 360 | 0.0 | 0.0 | 0.00 | 0.00 | 0.00 | 90 | 1017.1 |
| 20260508053504 | 48 | 360 | 0.0 | 0.0 | 0.00 | 0.00 | 0.00 | 90 | 1017.0 |
| 20260508053004 | 48 | 360 | 0.0 | 0.0 | 0.00 | 0.00 | 0.00 | 89 | 1017.1 |
| 20260508052504 | 49 | 360 | 0.0 | 1.0 | 0.00 | 0.00 | 0.00 | 89 | 1017.0 |
| 20260508052004 | 49 | 360 | 0.0 | 1.0 | 0.00 | 0.00 | 0.00 | 89 | 1017.1 |
| 20260508051304 | 49 | 360 | 0.0 | 1.0 | 0.00 | 0.00 | 0.00 | 88 | 1017.0 |
| 20260508050804 | 50 | 360 | 0.0 | 0.0 | 0.00 | 0.00 | 0.00 | 87 | 1017.0 |
| 20260508050304 | 50 | 184 | 0.0 | 0.0 | 0.00 | 0.00 | 0.00 | 87 | 1017.0 |
| 20260508045804 | 50 | 184 | 0.0 | 0.0 | 0.00 | 0.00 | 0.00 | 86 | 1016.9 |
| 20260508045307 | 50 | 184 | 0.0 | 1.0 | 0.00 | 0.00 | 0.00 | 85 | 1016.9 |
| 20260508044504 | 51 | 184 | 0.0 | 1.0 | 0.00 | 0.00 | 0.00 | 84 | 1016.9 |
| 20260508044004 | 51 | 184 | 0.0 | 1.0 | 0.00 | 0.00 | 0.00 | 84 | 1016.9 |
| 20260508043504 | 51 | 184 | 0.0 | 1.0 | 0.00 | 0.00 | 0.00 | 84 | 1016.9 |
| 20260508043004 | 52 | 184 | 0.0 | 1.0 | 0.00 | 0.00 | 0.00 | 84 | 1017.0 |
| 20260508042504 | 52 | 184 | 0.0 | 1.0 | 0.00 | 0.00 | 0.00 | 83 | 1016.9 |
| 20260508042004 | 52 | 184 | 0.0 | 1.0 | 0.00 | 0.00 | 0.00 | 84 | 1016.9 |
| 20260508041504 | 52 | 184 | 0.0 | 2.0 | 0.00 | 0.00 | 0.00 | 84 | 1016.8 |
| 20260508041004 | 52 | 184 | 0.0 | 2.0 | 0.00 | 0.00 | 0.00 | 83 | 1016.8 |
| 20260508040504 | 52 | 184 | 2.0 | 2.0 | 0.00 | 0.00 | 0.00 | 80 | 1016.9 |
| 20260508035804 | 54 | 184 | 1.0 | 2.0 | 0.00 | 0.00 | 0.00 | 78 | 1016.7 |
| 20260508035306 | 54 | 178 | 1.0 | 1.0 | 0.00 | 0.00 | 0.00 | 77 | 1016.6 |
| 20260508034704 | 55 | 360 | 0.0 | 1.0 | 0.00 | 0.00 | 0.00 | 75 | 1016.6 |
| 20260508034204 | 55 | 360 | 0.0 | 1.0 | 0.00 | 0.00 | 0.00 | 75 | 1016.5 |
| 20260508033704 | 56 | 360 | 1.0 | 2.0 | 0.00 | 0.00 | 0.00 | 73 | 1016.5 |
| 20260508033204 | 57 | 360 | 0.0 | 2.0 | 0.00 | 0.00 | 0.00 | 72 | 1016.4 |
| 20260508032704 | 57 | 360 | 2.0 | 4.0 | 0.00 | 0.00 | 0.00 | 71 | 1016.3 |
| 20260508032204 | 58 | 360 | 2.0 | 4.0 | 0.00 | 0.00 | 0.00 | 69 | 1016.3 |
| 20260508031704 | 58 | 360 | 1.0 | 3.0 | 0.00 | 0.00 | 0.00 | 69 | 1016.3 |
| 20260508031004 | 59 | 157 | 1.0 | 4.0 | 0.00 | 0.00 | 0.00 | 67 | 1016.1 |
| 20260508030404 | 59 | 198 | 2.0 | 4.0 | 0.00 | 0.00 | 0.00 | 66 | 1016.1 |
| 20260508025904 | 59 | 231 | 3.0 | 4.0 | 0.00 | 0.00 | 0.00 | 65 | 1016.2 |
| 20260508025404 | 60 | 193 | 3.0 | 4.0 | 0.00 | 0.00 | 0.00 | 66 | 1016.2 |
| 20260508024904 | 60 | 195 | 1.0 | 6.0 | 0.00 | 0.00 | 0.00 | 64 | 1016.2 |
| 20260508024404 | 61 | 213 | 4.0 | 6.0 | 0.00 | 0.00 | 0.00 | 63 | 1016.3 |
| 20260508023904 | 62 | 184 | 4.0 | 5.0 | 0.00 | 0.00 | 0.00 | 63 | 1016.2 |
| 20260508023404 | 62 | 226 | 3.0 | 7.0 | 0.00 | 0.00 | 0.00 | 59 | 1016.1 |
| 20260508022704 | 63 | 207 | 4.0 | 7.0 | 0.00 | 0.00 | 0.00 | 58 | 1016.0 |
| 20260508022204 | 63 | 202 | 6.0 | 6.0 | 0.00 | 0.00 | 0.00 | 61 | 1016.1 |
| 20260508021705 | 63 | 192 | 3.0 | 4.0 | 0.00 | 0.00 | 0.00 | 60 | 1016.1 |
| 20260508021204 | 63 | 207 | 2.0 | 5.0 | 0.00 | 0.00 | 0.00 | 63 | 1016.1 |
| 20260508020704 | 62 | 360 | 3.0 | 8.0 | 0.00 | 0.00 | 0.00 | 64 | 1016.1 |
| 20260508020204 | 62 | 215 | 2.0 | 8.0 | 0.00 | 0.00 | 0.00 | 61 | 1016.2 |
| 20260508015705 | 62 | 221 | 4.0 | 6.0 | 0.00 | 0.00 | 0.00 | 62 | 1016.2 |
| 20260508015204 | 62 | 236 | 5.0 | 6.0 | 0.00 | 0.00 | 0.00 | 63 | 1016.2 |
| 20260508014704 | 62 | 233 | 3.0 | 6.0 | 0.00 | 0.00 | 0.00 | 61 | 1016.2 |
| 20260508014204 | 63 | 360 | 5.0 | 8.0 | 0.00 | 0.00 | 0.00 | 61 | 1016.2 |
| 20260508013704 | 63 | 221 | 4.0 | 8.0 | 0.00 | 0.00 | 0.00 | 58 | 1016.3 |
| 20260508013204 | 64 | 204 | 8.0 | 8.0 | 0.00 | 0.00 | 0.00 | 59 | 1016.3 |
| 20260508012704 | 64 | 224 | 6.0 | 6.0 | 0.00 | 0.00 | 0.00 | 60 | 1016.3 |
| 20260508012204 | 65 | 228 | 2.0 | 9.0 | 0.00 | 0.00 | 0.00 | 58 | 1016.4 |
| 20260508011504 | 65 | 213 | 4.0 | 9.0 | 0.00 | 0.00 | 0.00 | 58 | 1016.4 |
| 20260508011005 | 65 | 206 | 5.0 | 8.0 | 0.00 | 0.00 | 0.00 | 62 | 1016.3 |
| 20260508010504 | 65 | 208 | 5.0 | 10.0 | 0.00 | 0.00 | 0.00 | 59 | 1016.4 |
| 20260508010004 | 65 | 190 | 7.0 | 10.0 | 0.00 | 0.00 | 0.00 | 61 | 1016.4 |
| 20260508005404 | 66 | 212 | 4.0 | 6.0 | 0.00 | 0.00 | 0.00 | 58 | 1016.4 |
| 20260508004704 | 67 | 192 | 2.0 | 4.0 | 0.00 | 0.00 | 0.00 | 55 | 1016.5 |
| 20260508004204 | 68 | 231 | 1.0 | 4.0 | 0.00 | 0.00 | 0.00 | 56 | 1016.4 |
| 20260508003704 | 67 | 191 | 2.0 | 5.0 | 0.00 | 0.00 | 0.00 | 55 | 1016.4 |
| 20260508003204 | 67 | 219 | 4.0 | 5.0 | 0.00 | 0.00 | 0.00 | 58 | 1016.4 |
| 20260508002704 | 67 | 265 | 3.0 | 6.0 | 0.00 | 0.00 | 0.00 | 53 | 1016.3 |
| 20260508002204 | 67 | 209 | 4.0 | 6.0 | 0.00 | 0.00 | 0.00 | 56 | 1016.4 |
| 20260508001704 | 66 | 279 | 2.0 | 5.0 | 0.00 | 0.00 | 0.00 | 55 | 1016.4 |
| 20260508001204 | 66 | 241 | 4.0 | 6.0 | 0.00 | 0.00 | 0.00 | 55 | 1016.4 |
| 20260508000704 | 66 | 217 | 5.0 | 7.0 | 0.00 | 0.00 | 0.00 | 55 | 1016.4 |
| 20260508000105 | 67 | 245 | 7.0 | 7.0 | 0.00 | 0.00 | 0.00 | 55 | 1016.5 |
| 20260507235604 | 67 | 209 | 7.0 | 7.0 | 0.00 | 0.00 | 0.00 | 58 | 1016.4 |
| 20260507235104 | 67 | 216 | 6.0 | 7.0 | 0.00 | 0.00 | 0.00 | 58 | 1016.4 |
| 20260507234604 | 67 | 261 | 4.0 | 7.0 | 0.00 | 0.00 | 0.00 | 57 | 1016.4 |
| 20260507233703 | 68 | 268 | 7.0 | 7.0 | 0.00 | 0.00 | 0.00 | 54 | 1016.5 |
| 20260507233204 | 68 | 337 | 3.0 | 4.0 | 0.00 | 0.00 | 0.00 | 53 | 1016.5 |
| 20260507232704 | 69 | 221 | 2.0 | 3.0 | 0.00 | 0.00 | 0.00 | 51 | 1016.6 |
| 20260507232204 | 69 | 183 | 1.0 | 5.0 | 0.00 | 0.00 | 0.00 | 45 | 1016.6 |
| 20260507231704 | 69 | 217 | 2.0 | 5.0 | 0.00 | 0.00 | 0.00 | 46 | 1016.6 |
| 20260507231204 | 69 | 73 | 4.0 | 4.0 | 0.00 | 0.00 | 0.00 | 44 | 1016.7 |
| 20260507230704 | 68 | 293 | 2.0 | 4.0 | 0.00 | 0.00 | 0.00 | 52 | 1016.8 |
| 20260507230204 | 68 | 283 | 4.0 | 4.0 | 0.00 | 0.00 | 0.00 | 46 | 1016.9 |
| 20260507225704 | 68 | 248 | 1.0 | 4.0 | 0.00 | 0.00 | 0.00 | 44 | 1016.9 |
| 20260507225204 | 69 | 270 | 4.0 | 5.0 | 0.00 | 0.00 | 0.00 | 50 | 1017.1 |
| 20260507224704 | 69 | 173 | 2.0 | 5.0 | 0.00 | 0.00 | 0.00 | 46 | 1017.2 |
| 20260507224204 | 69 | 154 | 1.0 | 3.0 | 0.00 | 0.00 | 0.00 | 47 | 1017.2 |
| 20260507223404 | 68 | 165 | 1.0 | 5.0 | 0.00 | 0.00 | 0.00 | 47 | 1017.4 |
| 20260507222904 | 68 | 163 | 2.0 | 5.0 | 0.00 | 0.00 | 0.00 | 51 | 1017.4 |
| 20260507222404 | 67 | 189 | 3.0 | 7.0 | 0.00 | 0.00 | 0.00 | 46 | 1017.4 |
| 20260507221904 | 67 | 206 | 2.0 | 7.0 | 0.00 | 0.00 | 0.00 | 50 | 1017.5 |
| 20260507221204 | 66 | 276 | 2.0 | 3.0 | 0.00 | 0.00 | 0.00 | 52 | 1017.7 |
| 20260507220704 | 66 | 181 | 1.0 | 3.0 | 0.00 | 0.00 | 0.00 | 47 | 1017.8 |
| 20260507220204 | 66 | 59 | 0.0 | 4.0 | 0.00 | 0.00 | 0.00 | 46 | 1018.0 |
| 20260507215704 | 66 | 38 | 2.0 | 4.0 | 0.00 | 0.00 | 0.00 | 43 | 1018.0 |
| 20260507215004 | 66 | 260 | 0.0 | 4.0 | 0.00 | 0.00 | 0.00 | 42 | 1018.0 |
| 20260507214304 | 66 | 197 | 3.0 | 3.0 | 0.00 | 0.00 | 0.00 | 52 | 1018.3 |
| 20260507213804 | 65 | 239 | 0.0 | 2.0 | 0.00 | 0.00 | 0.00 | 50 | 1018.3 |